EW9411 Weather Reports


time (UTC)temp
F
wind
direction
speed
knots
gust
knots
rain 1hr
in
rain 24hr
in
rain mn
in
humidity
%
barometer
mb
20210920043714 58 5 0.9 2.6 0.00 0.00 0.00 87 1023.7
20210920043526 59 5 0.9 2.6 0.00 0.00 0.00 87 1023.7
20210920043221 59 5 0.9 2.6 0.00 0.00 0.00 87 1023.7
20210920043014 59 5 1.7 2.6 0.00 0.00 0.00 87 1023.7
20210920042709 59 5 1.7 2.6 0.00 0.00 0.00 88 1023.6
20210920042521 58 5 0.9 1.7 0.00 0.00 0.00 88 1023.7
20210920042217 58 5 0.9 1.7 0.00 0.00 0.00 88 1023.7
20210920042010 58 5 0.9 1.7 0.00 0.00 0.00 88 1023.7
20210920041725 58 5 0.9 1.7 0.00 0.00 0.00 88 1023.7
20210920041521 58 5 0.9 1.7 0.00 0.00 0.00 89 1023.5
20210920041212 58 5 0.9 2.6 0.00 0.00 0.00 89 1023.6
20210920041009 58 5 0.9 2.6 0.00 0.00 0.00 89 1023.6
20210920040720 58 5 1.7 2.6 0.00 0.00 0.00 89 1023.5
20210920040517 58 5 0.0 0.0 0.00 0.00 0.00 88 1023.5
20210920040227 58 5 0.0 0.0 0.00 0.00 0.00 88 1023.6
20210920040023 58 5 0.0 0.0 0.00 0.00 0.00 88 1023.5
20210920035719 58 5 0.0 0.0 0.00 0.00 0.00 88 1023.5
20210920035511 58 5 0.0 0.0 0.00 0.00 0.00 88 1023.5
20210920035226 58 5 0.0 1.7 0.00 0.00 0.00 88 1023.5
20210920035019 58 5 0.0 1.7 0.00 0.00 0.00 88 1023.5
20210920034714 58 5 0.0 1.7 0.00 0.00 0.00 87 1023.5
20210920034526 58 5 0.9 1.7 0.00 0.00 0.00 87 1023.4
20210920034221 59 5 0.9 1.7 0.00 0.00 0.00 87 1023.4
20210920034013 59 5 0.9 1.7 0.00 0.00 0.00 87 1023.4
20210920033709 59 5 0.0 2.6 0.00 0.00 0.00 87 1023.4
20210920033522 59 5 0.0 2.6 0.00 0.00 0.00 87 1023.4
20210920033217 59 5 0.9 2.6 0.00 0.00 0.00 87 1023.4
20210920033014 59 5 1.7 2.6 0.00 0.00 0.00 87 1023.4
20210920032725 59 5 0.9 1.7 0.00 0.00 0.00 87 1023.3
20210920032521 59 5 0.9 1.7 0.00 0.00 0.00 87 1023.3
20210920032212 59 5 0.9 2.6 0.00 0.00 0.00 87 1023.2
20210920032009 59 5 0.9 2.6 0.00 0.00 0.00 87 1023.2
20210920031720 59 5 1.7 2.6 0.00 0.00 0.00 87 1023.2
20210920031517 59 5 1.7 2.6 0.00 0.00 0.00 87 1023.2
20210920031212 59 5 1.7 3.5 0.00 0.00 0.00 87 1023.1
20210920031025 60 5 1.7 3.5 0.00 0.00 0.00 87 1023.1
20210920030720 60 5 1.7 3.5 0.00 0.00 0.00 87 1023.1
20210920030512 60 5 1.7 3.5 0.00 0.00 0.00 87 1023.0
20210920030208 60 5 1.7 3.5 0.00 0.00 0.00 87 1023.0
20210920030021 60 5 1.7 3.5 0.00 0.00 0.00 87 1023.0
20210920025716 60 5 2.6 3.5 0.00 0.00 0.00 87 1023.0
20210920025508 60 5 1.7 3.5 0.00 0.00 0.00 87 1023.0
20210920025224 61 5 2.6 3.5 0.00 0.00 0.00 87 1022.9
20210920025016 61 4 1.7 3.5 0.00 0.00 0.00 86 1022.9
20210920024711 61 4 1.7 3.5 0.00 0.00 0.00 86 1022.9
20210920024524 61 6 1.7 3.5 0.00 0.00 0.00 86 1022.9
20210920024219 61 6 1.7 3.5 0.00 0.00 0.00 87 1022.9
20210920024016 61 5 1.7 3.5 0.00 0.00 0.00 87 1022.9
20210920023727 61 10 2.6 4.3 0.00 0.00 0.00 87 1022.8
20210920023523 60 10 1.7 5.2 0.00 0.00 0.00 87 1022.8
20210920023215 60 11 2.6 5.2 0.00 0.00 0.00 86 1022.8
20210920023011 60 11 2.6 5.2 0.00 0.00 0.00 86 1022.7
20210920022723 60 6 2.6 4.3 0.00 0.00 0.00 86 1022.8
20210920022519 61 2 2.6 4.3 0.00 0.00 0.00 86 1022.7
20210920022213 61 6 2.6 3.5 0.00 0.00 0.00 85 1022.6
20210920022026 61 7 2.6 4.3 0.00 0.00 0.00 85 1022.6
20210920021742 61 8 2.6 5.2 0.00 0.00 0.00 85 1022.6
20210920021514 61 3 2.6 5.2 0.00 0.00 0.00 85 1022.6
20210920021209 61 1 1.7 5.2 0.00 0.00 0.00 84 1022.6
20210920021021 61 1 2.6 5.2 0.00 0.00 0.00 83 1022.6
20210920020716 62 11 2.6 5.2 0.00 0.00 0.00 83 1022.5
20210920020529 62 9 2.6 5.2 0.00 0.00 0.00 83 1022.5
20210920020224 61 8 2.6 5.2 0.00 0.00 0.00 84 1022.5
20210920020016 61 4 2.6 5.2 0.00 0.00 0.00 85 1022.5
20210920015711 61 351 1.7 5.2 0.00 0.00 0.00 84 1022.4
20210920015524 61 351 2.6 5.2 0.00 0.00 0.00 84 1022.4
20210920015240 61 351 2.6 5.2 0.00 0.00 0.00 84 1022.4
20210920015011 61 351 1.7 3.5 0.00 0.00 0.00 84 1022.4
20210920014727 61 351 2.6 3.5 0.00 0.00 0.00 84 1022.3
20210920014523 61 351 2.6 3.5 0.00 0.00 0.00 84 1022.3
20210920014214 61 351 1.7 2.6 0.00 0.00 0.00 84 1022.3
20210920014011 62 351 1.7 2.6 0.00 0.00 0.00 84 1022.3
20210920013722 62 351 1.7 2.6 0.00 0.00 0.00 83 1022.2
20210920013519 62 351 1.7 2.6 0.00 0.00 0.00 82 1022.3
20210920013210 62 351 1.7 2.6 0.00 0.00 0.00 82 1022.2
20210920013027 62 351 1.7 2.6 0.00 0.00 0.00 82 1022.3
20210920012722 62 351 1.7 2.6 0.00 0.00 0.00 81 1022.3
20210920012514 62 351 1.7 2.6 0.00 0.00 0.00 82 1022.2
20210920012209 62 351 1.7 2.6 0.00 0.00 0.00 82 1022.2
20210920012021 62 351 1.7 2.6 0.00 0.00 0.00 83 1022.3
20210920011737 61 351 1.7 2.6 0.00 0.00 0.00 83 1022.2
20210920011528 61 351 1.7 2.6 0.00 0.00 0.00 83 1022.2
20210920011223 61 351 1.7 2.6 0.00 0.00 0.00 83 1022.1
20210920011016 61 351 1.7 2.6 0.00 0.00 0.00 83 1022.1
20210920010710 61 351 1.7 2.6 0.00 0.00 0.00 83 1022.0
20210920010523 62 351 1.7 2.6 0.00 0.00 0.00 83 1022.0
20210920010217 62 351 1.7 2.6 0.00 0.00 0.00 83 1022.0
20210920010009 62 351 1.7 2.6 0.00 0.00 0.00 82 1022.0
20210920005724 62 351 1.7 2.6 0.00 0.00 0.00 83 1022.0
20210920005517 62 351 1.7 2.6 0.00 0.00 0.00 83 1021.9
20210920005212 62 351 0.9 2.6 0.00 0.00 0.00 82 1021.9
20210920005009 62 351 1.7 2.6 0.00 0.00 0.00 83 1021.9
20210920004720 62 351 0.0 0.0 0.00 0.00 0.00 82 1022.0
20210920004537 62 351 0.0 0.0 0.00 0.00 0.00 82 1021.9
20210920004247 62 351 0.0 0.0 0.00 0.00 0.00 82 1021.9
20210920004023 62 351 0.0 0.0 0.00 0.00 0.00 81 1021.8
20210920003714 63 351 0.0 0.0 0.00 0.00 0.00 82 1021.8
20210920003511 63 351 0.0 0.0 0.00 0.00 0.00 81 1021.7
20210920003243 63 351 0.0 0.0 0.00 0.00 0.00 81 1021.7
20210920003018 63 351 0.0 0.0 0.00 0.00 0.00 80 1021.7
20210920002709 63 351 0.0 0.0 0.00 0.00 0.00 80 1021.7
20210920002526 63 351 0.0 0.0 0.00 0.00 0.00 79 1021.7
20210920002221 63 351 0.0 0.0 0.00 0.00 0.00 79 1021.7
20210920002013 63 351 0.0 0.0 0.00 0.00 0.00 80 1021.7
20210920001709 64 351 0.0 0.0 0.00 0.00 0.00 80 1021.6
20210920001521 63 351 0.0 0.0 0.00 0.00 0.00 80 1021.6
20210920001216 64 351 0.0 0.0 0.00 0.00 0.00 79 1021.5
20210920001009 64 351 0.0 0.0 0.00 0.00 0.00 79 1021.5
20210920000724 64 351 0.0 0.9 0.00 0.00 0.00 79 1021.4
20210920000517 64 351 0.0 0.9 0.00 0.00 0.00 78 1021.4
20210920000212 64 351 0.0 1.7 0.00 0.00 0.00 77 1021.3
20210920000025 64 351 0.0 1.7 0.00 0.00 0.00 77 1021.3
20210919235720 64 351 0.0 1.7 0.00 0.00 0.00 77 1021.3
20210919235516 64 351 0.0 1.7 0.00 0.00 0.00 77 1021.2
20210919235225 65 351 0.9 1.7 0.00 0.00 0.00 77 1021.2
20210919235021 65 351 0.9 1.7 0.00 0.00 0.00 77 1021.1
20210919234712 64 351 1.7 2.6 0.00 0.00 0.00 77 1021.0
20210919234509 64 351 0.9 2.6 0.00 0.00 0.00 77 1021.0
20210919234220 64 351 1.7 2.6 0.00 0.00 0.00 75 1021.0
20210919234017 64 351 0.9 1.7 0.00 0.00 0.00 75 1021.0
20210919233712 65 351 0.0 0.0 0.00 0.00 0.00 74 1020.9
20210919233544 65 351 0.0 0.0 0.00 0.00 0.00 73 1020.9
20210919233219 65 351 0.0 0.0 0.00 0.00 0.00 72 1020.8
20210919233011 65 351 0.0 0.0 0.00 0.00 0.00 72 1020.8
20210919232727 66 351 0.0 0.0 0.00 0.00 0.00 72 1020.8
20210919232519 66 351 0.0 0.0 0.00 0.00 0.00 71 1020.8
20210919232235 66 351 0.0 0.9 0.00 0.00 0.00 71 1020.7
20210919232027 66 351 0.0 0.9 0.00 0.00 0.00 71 1020.7
20210919231804 66 351 0.0 0.9 0.00 0.00 0.00 71 1020.7
20210919231514 67 351 0.0 0.9 0.00 0.00 0.00 70 1020.8
20210919231209 67 351 0.0 0.9 0.00 0.00 0.00 69 1020.7
20210919231022 67 351 0.0 0.0 0.00 0.00 0.00 68 1020.7
20210919230738 67 351 0.0 0.0 0.00 0.00 0.00 68 1020.7
20210919230510 68 351 0.0 0.0 0.00 0.00 0.00 67 1020.8
20210919230225 68 351 0.0 1.7 0.00 0.00 0.00 66 1020.8
20210919230017 68 351 0.0 1.7 0.00 0.00 0.00 65 1020.7
20210919225713 69 351 0.0 1.7 0.00 0.00 0.00 64 1020.8
20210919225545 69 351 0.9 1.7 0.00 0.00 0.00 65 1020.7
20210919225219 69 351 0.0 1.7 0.00 0.00 0.00 65 1020.7
20210919225012 69 351 0.9 1.7 0.00 0.00 0.00 65 1020.7
20210919224727 70 351 0.9 1.7 0.00 0.00 0.00 64 1020.7
20210919224524 70 351 0.9 1.7 0.00 0.00 0.00 63 1020.7
20210919224215 70 351 0.9 1.7 0.00 0.00 0.00 62 1020.7
20210919224012 71 351 0.9 1.7 0.00 0.00 0.00 61 1020.6
20210919223723 72 351 0.9 1.7 0.00 0.00 0.00 59 1020.6
20210919223520 72 351 0.0 0.9 0.00 0.00 0.00 59 1020.6
20210919223211 73 351 0.0 1.7 0.00 0.00 0.00 57 1020.5
20210919223028 73 351 0.0 1.7 0.00 0.00 0.00 56 1020.5
20210919222723 73 351 0.9 1.7 0.00 0.00 0.00 57 1020.5
20210919222536 73 351 0.9 1.7 0.00 0.00 0.00 56 1020.5
20210919222210 73 351 0.0 0.9 0.00 0.00 0.00 53 1020.5
20210919222022 74 351 0.0 0.9 0.00 0.00 0.00 51 1020.5
20210919221718 74 351 0.0 0.9 0.00 0.00 0.00 49 1020.5
20210919221510 74 351 0.0 0.9 0.00 0.00 0.00 49 1020.5
20210919221226 74 351 0.0 2.6 0.00 0.00 0.00 49 1020.5
20210919221018 74 351 0.0 2.6 0.00 0.00 0.00 48 1020.5
20210919220714 74 351 0.9 2.6 0.00 0.00 0.00 48 1020.5
20210919220526 74 351 1.7 2.6 0.00 0.00 0.00 47 1020.5
20210919220222 74 351 0.0 4.3 0.00 0.00 0.00 47 1020.5
20210919220054 74 351 0.9 4.3 0.00 0.00 0.00 46 1020.4
20210919215728 75 351 2.6 4.3 0.00 0.00 0.00 44 1020.4
20210919215520 75 346 0.9 3.5 0.00 0.00 0.00 46 1020.4
20210919215215 76 346 1.7 4.3 0.00 0.00 0.00 45 1020.5
20210919215011 76 346 0.9 4.3 0.00 0.00 0.00 45 1020.4
20210919214723 76 346 1.7 4.3 0.00 0.00 0.00 44 1020.4
20210919214519 76 346 2.6 4.3 0.00 0.00 0.00 44 1020.4
20210919214210 77 333 1.7 4.3 0.00 0.00 0.00 44 1020.4
20210919214027 77 333 1.7 4.3 0.00 0.00 0.00 42 1020.4
20210919213718 77 329 1.7 4.3 0.00 0.00 0.00 43 1020.4
20210919213515 77 322 2.6 4.3 0.00 0.00 0.00 41 1020.4
20210919213209 77 360 2.6 5.2 0.00 0.00 0.00 41 1020.3
20210919213021 77 351 2.6 5.2 0.00 0.00 0.00 44 1020.3
20210919212717 77 28 2.6 5.2 0.00 0.00 0.00 45 1020.3
20210919212509 77 19 1.7 5.2 0.00 0.00 0.00 46 1020.3
20210919212246 77 356 0.9 5.2 0.00 0.00 0.00 45 1020.3
20210919212017 77 356 1.7 7.8 0.00 0.00 0.00 45 1020.3
20210919211713 78 10 3.5 7.8 0.00 0.00 0.00 44 1020.3
20210919211525 78 12 1.7 7.8 0.00 0.00 0.00 45 1020.2
20210919211220 78 4 2.6 7.8 0.00 0.00 0.00 46 1020.2
20210919211013 78 346 1.7 4.3 0.00 0.00 0.00 46 1020.2
20210919210708 78 21 1.7 5.2 0.00 0.00 0.00 46 1020.2
20210919210521 78 338 1.7 5.2 0.00 0.00 0.00 46 1020.2
20210919210216 78 32 1.7 5.2 0.00 0.00 0.00 45 1020.1
20210919210013 78 360 2.6 7.8 0.00 0.00 0.00 45 1020.2
20210919205744 77 13 2.6 7.8 0.00 0.00 0.00 46 1020.1
20210919205519 77 2 3.5 7.8 0.00 0.00 0.00 44 1020.2
20210919205211 77 14 2.6 7.0 0.00 0.00 0.00 46 1020.1
20210919205027 77 3 1.7 7.8 0.00 0.00 0.00 45 1020.2
20210919204719 77 19 2.6 7.8 0.00 0.00 0.00 48 1020.2
20210919204536 77 356 2.6 7.8 0.00 0.00 0.00 47 1020.2
20210919204226 77 356 3.5 9.6 0.00 0.00 0.00 47 1020.3
20210919204023 77 11 1.7 9.6 0.00 0.00 0.00 49 1020.2
20210919203734 77 42 3.5 10.4 0.00 0.00 0.00 48 1020.2
20210919203510 77 8 3.5 10.4 0.00 0.00 0.00 47 1020.2
20210919203242 77 20 2.6 10.4 0.00 0.00 0.00 47 1020.2
20210919203018 77 315 2.6 10.4 0.00 0.00 0.00 49 1020.3
20210919202712 77 333 1.7 7.0 0.00 0.00 0.00 49 1020.2
20210919202546 77 332 1.7 7.8 0.00 0.00 0.00 50 1020.2
20210919202221 76 6 2.6 8.7 0.00 0.00 0.00 50 1020.2
20210919202013 76 351 4.3 8.7 0.00 0.00 0.00 51 1020.3
20210919201708 76 13 3.5 8.7 0.00 0.00 0.00 49 1020.2
20210919201521 77 16 4.3 8.7 0.00 0.00 0.00 48 1020.3
20210919201237 77 346 0.9 5.2 0.00 0.00 0.00 48 1020.3
20210919201028 77 346 1.7 5.2 0.00 0.00 0.00 49 1020.3
20210919200724 77 351 2.6 7.0 0.00 0.00 0.00 51 1020.3
20210919200516 76 356 0.9 7.0 0.00 0.00 0.00 50 1020.3
20210919200211 76 351 3.5 7.0 0.00 0.00 0.00 48 1020.3
20210919200024 77 360 3.5 7.0 0.00 0.00 0.00 49 1020.3
20210919195719 77 6 1.7 8.7 0.00 0.00 0.00 49 1020.3
20210919195511 77 2 0.9 8.7 0.00 0.00 0.00 51 1020.3
20210919195227 76 2 1.7 8.7 0.00 0.00 0.00 49 1020.3
20210919195023 77 2 4.3 8.7 0.00 0.00 0.00 48 1020.3
20210919194715 77 360 2.6 8.7 0.00 0.00 0.00 51 1020.4
20210919194511 77 298 3.5 8.7 0.00 0.00 0.00 50 1020.3
20210919194223 77 338 4.3 8.7 0.00 0.00 0.00 49 1020.3
20210919194019 78 12 3.5 5.2 0.00 0.00 0.00 48 1020.3
20210919193711 78 40 1.7 7.8 0.00 0.00 0.00 50 1020.3
20210919193527 78 300 0.9 7.8 0.00 0.00 0.00 48 1020.3
20210919193221 78 39 1.7 7.8 0.00 0.00 0.00 51 1020.3
20210919193014 77 346 3.5 7.8 0.00 0.00 0.00 48 1020.3
20210919192709 77 28 2.6 6.1 0.00 0.00 0.00 50 1020.3
20210919192522 77 351 1.7 7.8 0.00 0.00 0.00 50 1020.3
20210919192217 77 333 2.6 7.8 0.00 0.00 0.00 50 1020.4
20210919192010 76 46 2.6 7.8 0.00 0.00 0.00 50 1020.4
20210919191725 76 336 3.5 7.8 0.00 0.00 0.00 50 1020.4
20210919191518 77 346 2.6 7.0 0.00 0.00 0.00 49 1020.4
20210919191213 77 6 1.7 8.7 0.00 0.00 0.00 52 1020.4
20210919191025 77 25 2.6 8.7 0.00 0.00 0.00 52 1020.4
20210919190721 76 27 4.3 8.7 0.00 0.00 0.00 50 1020.4
20210919190517 77 346 2.6 8.7 0.00 0.00 0.00 50 1020.4
20210919190209 76 17 1.7 7.0 0.00 0.00 0.00 52 1020.4
20210919190025 76 289 3.5 7.8 0.00 0.00 0.00 52 1020.4
20210919185717 76 351 2.6 7.8 0.00 0.00 0.00 50 1020.4
20210919185513 76 43 3.5 8.7 0.00 0.00 0.00 50 1020.4
20210919185223 77 43 0.9 8.7 0.00 0.00 0.00 50 1020.4
20210919185020 77 43 1.7 8.7 0.00 0.00 0.00 50 1020.5
20210919184715 77 27 1.7 8.7 0.00 0.00 0.00 52 1020.5
20210919184528 76 321 0.9 8.7 0.00 0.00 0.00 54 1020.5
20210919184223 75 27 3.5 8.7 0.00 0.00 0.00 52 1020.5
20210919184015 75 6 4.3 8.7 0.00 0.00 0.00 50 1020.5
20210919183711 75 6 3.5 7.8 0.00 0.00 0.00 50 1020.5
20210919183523 76 11 3.5 7.8 0.00 0.00 0.00 51 1020.6
20210919183218 75 335 4.3 10.4 0.00 0.00 0.00 51 1020.6
20210919183011 76 360 1.7 10.4 0.00 0.00 0.00 51 1020.6
20210919182726 76 360 5.2 10.4 0.00 0.00 0.00 51 1020.7
20210919182519 76 356 4.3 10.4 0.00 0.00 0.00 51 1020.7
20210919182214 75 356 1.7 9.6 0.00 0.00 0.00 54 1020.7
20210919182048 75 1 1.7 9.6 0.00 0.00 0.00 53 1020.7
20210919181722 75 26 3.5 8.7 0.00 0.00 0.00 52 1020.7
20210919181519 75 41 4.3 8.7 0.00 0.00 0.00 51 1020.7
20210919181210 76 356 3.5 9.6 0.00 0.00 0.00 51 1020.7
20210919181026 76 337 4.3 9.6 0.00 0.00 0.00 50 1020.7
20210919180718 76 33 3.5 9.6 0.00 0.00 0.00 54 1020.7
20210919180514 76 312 0.9 7.8 0.00 0.00 0.00 54 1020.7
20210919180226 75 277 2.6 7.8 0.00 0.00 0.00 53 1020.8
20210919180022 76 346 5.2 7.8 0.00 0.00 0.00 50 1020.9
20210919175718 76 360 3.5 7.8 0.00 0.00 0.00 51 1020.9
20210919175510 76 360 3.5 7.8 0.00 0.00 0.00 53 1020.8
20210919175225 76 346 3.5 5.2 0.00 0.00 0.00 53 1020.8
20210919175018 76 93 1.7 4.3 0.00 0.00 0.00 56 1020.9
20210919174713 76 10 1.7 4.3 0.00 0.00 0.00 53 1020.9
20210919174526 76 351 2.6 4.3 0.00 0.00 0.00 55 1020.9
20210919174243 75 46 2.6 5.2 0.00 0.00 0.00 52 1020.9
20210919174014 75 43 2.6 6.1 0.00 0.00 0.00 53 1021.0
20210919173710 75 21 2.6 11.3 0.00 0.00 0.00 55 1021.0
20210919173522 74 17 3.5 11.3 0.00 0.00 0.00 56 1021.0
20210919173218 74 39 4.3 11.3 0.00 0.00 0.00 56 1021.0
20210919173010 75 3 3.5 10.4 0.00 0.00 0.00 57 1021.0
20210919172725 74 15 2.6 7.0 0.00 0.00 0.00 56 1020.9
20210919172521 74 260 2.6 7.0 0.00 0.00 0.00 57 1021.0
20210919172213 74 304 2.6 7.0 0.00 0.00 0.00 56 1021.0
20210919172009 75 351 2.6 7.0 0.00 0.00 0.00 56 1021.0
20210919171721 75 356 3.5 7.0 0.00 0.00 0.00 57 1021.0
20210919171517 75 331 3.5 7.0 0.00 0.00 0.00 56 1021.1
20210919171209 75 89 1.7 7.8 0.00 0.00 0.00 57 1021.1
20210919171025 75 63 1.7 7.8 0.00 0.00 0.00 57 1021.1
20210919170720 75 40 2.6 7.8 0.00 0.00 0.00 57 1021.1
20210919170512 75 351 4.3 8.7 0.00 0.00 0.00 55 1021.1
20210919170208 75 12 2.6 8.7 0.00 0.00 0.00 56 1021.3
20210919170020 75 25 4.3 8.7 0.00 0.00 0.00 55 1021.3
20210919165716 75 19 0.9 5.2 0.00 0.00 0.00 56 1021.3
20210919165528 75 356 1.7 5.2 0.00 0.00 0.00 59 1021.4
20210919165243 74 58 3.5 7.0 0.00 0.00 0.00 57 1021.3
20210919165015 74 351 1.7 7.0 0.00 0.00 0.00 57 1021.3
20210919164710 73 346 1.7 11.3 0.00 0.00 0.00 57 1021.3
20210919164523 73 5 2.6 11.3 0.00 0.00 0.00 59 1021.3
20210919164218 73 13 2.6 11.3 0.00 0.00 0.00 57 1021.2
20210919164032 74 8 7.0 11.3 0.00 0.00 0.00 56 1021.2
20210919163726 74 25 2.6 11.3 0.00 0.00 0.00 58 1021.2
20210919163518 74 2 1.7 11.3 0.00 0.00 0.00 58 1021.1
20210919163214 73 9 4.3 11.3 0.00 0.00 0.00 57 1021.2
20210919163031 73 30 3.5 7.8 0.00 0.00 0.00 58 1021.1
20210919162721 73 6 2.6 7.8 0.00 0.00 0.00 60 1021.1
20210919162518 73 328 3.5 8.7 0.00 0.00 0.00 59 1021.1
20210919162209 73 42 1.7 10.4 0.00 0.00 0.00 58 1021.1
20210919162026 73 42 2.6 10.4 0.00 0.00 0.00 59 1021.1
20210919161717 73 10 5.2 11.3 0.00 0.00 0.00 60 1021.1
20210919161514 73 18 1.7 11.3 0.00 0.00 0.00 59 1021.1
20210919161209 73 8 2.6 11.3 0.00 0.00 0.00 60 1021.2
20210919161021 73 346 4.3 11.3 0.00 0.00 0.00 57 1021.1
20210919160717 73 328 4.3 8.7 0.00 0.00 0.00 58 1021.1
20210919160509 73 48 2.6 7.0 0.00 0.00 0.00 61 1021.2
20210919160225 73 14 1.7 7.0 0.00 0.00 0.00 62 1021.2
20210919160017 73 37 1.7 7.0 0.00 0.00 0.00 60 1021.1
20210919155713 73 1 2.6 7.0 0.00 0.00 0.00 61 1021.2
20210919155525 73 35 2.6 7.0 0.00 0.00 0.00 61 1021.2
20210919155221 72 58 1.7 6.1 0.00 0.00 0.00 63 1021.3
20210919155013 72 48 2.6 6.1 0.00 0.00 0.00 61 1021.3
20210919154749 72 2 2.6 9.6 0.00 0.00 0.00 62 1021.2
20210919154541 72 356 2.6 9.6 0.00 0.00 0.00 62 1021.2
20210919154215 71 35 3.5 10.4 0.00 0.00 0.00 62 1021.2
20210919154028 71 356 6.1 10.4 0.00 0.00 0.00 61 1021.2
20210919153723 71 356 4.3 10.4 0.00 0.00 0.00 63 1021.2
20210919153519 71 19 4.3 8.7 0.00 0.00 0.00 61 1021.2
20210919153211 71 6 3.5 8.7 0.00 0.00 0.00 61 1021.1
20210919153027 71 2 2.6 8.7 0.00 0.00 0.00 64 1021.2
20210919152719 71 13 2.6 9.6 0.00 0.00 0.00 64 1021.2
20210919152536 71 356 6.1 9.6 0.00 0.00 0.00 62 1021.2
20210919152227 71 356 4.3 10.4 0.00 0.00 0.00 63 1021.2
20210919152023 71 331 5.2 10.4 0.00 0.00 0.00 62 1021.2
20210919151715 70 17 2.6 13.0 0.00 0.00 0.00 65 1021.1
20210919151531 70 261 6.1 13.0 0.00 0.00 0.00 62 1021.1
20210919151221 70 1 3.5 13.0 0.00 0.00 0.00 62 1021.1
20210919151018 71 351 5.2 13.0 0.00 0.00 0.00 62 1021.1
20210919150713 71 356 2.6 10.4 0.00 0.00 0.00 63 1021.0
20210919150525 70 7 1.7 10.4 0.00 0.00 0.00 64 1021.0
20210919150221 70 46 4.3 10.4 0.00 0.00 0.00 65 1021.0
20210919150014 70 346 5.2 10.4 0.00 0.00 0.00 62 1021.0
20210919145709 70 12 3.5 9.6 0.00 0.00 0.00 63 1021.0
20210919145521 70 27 5.2 9.6 0.00 0.00 0.00 64 1021.0
20210919145217 70 3 3.5 10.4 0.00 0.00 0.00 64 1020.9
20210919145010 70 6 4.3 10.4 0.00 0.00 0.00 63 1021.0
20210919144725 69 4 3.5 13.0 0.00 0.00 0.00 64 1020.9
20210919144517 69 356 4.3 13.0 0.00 0.00 0.00 64 1021.0
20210919144213 69 10 6.1 13.0 0.00 0.00 0.00 62 1021.0
20210919144009 70 28 4.3 9.6 0.00 0.00 0.00 64 1021.0
20210919143721 69 22 3.5 9.6 0.00 0.00 0.00 64 1021.0
20210919143517 69 33 5.2 9.6 0.00 0.00 0.00 64 1021.1
20210919143208 69 346 4.3 8.7 0.00 0.00 0.00 64 1021.1
20210919143025 69 23 5.2 9.6 0.00 0.00 0.00 64 1021.1
20210919142716 69 27 3.5 9.6 0.00 0.00 0.00 65 1021.2
20210919142513 69 40 4.3 9.6 0.00 0.00 0.00 65 1021.1
20210919142208 69 7 4.3 8.7 0.00 0.00 0.00 63 1021.1
20210919142021 69 25 1.7 7.0 0.00 0.00 0.00 66 1021.1
20210919141716 69 29 2.6 7.8 0.00 0.00 0.00 66 1021.1
20210919141508 69 29 3.5 7.8 0.00 0.00 0.00 65 1021.1
20210919141224 68 13 4.3 9.6 0.00 0.00 0.00 66 1021.1
20210919141017 68 16 4.3 9.6 0.00 0.00 0.00 66 1021.1
20210919140732 68 7 2.6 9.6 0.00 0.00 0.00 67 1021.1
20210919140524 68 33 5.2 9.6 0.00 0.00 0.00 66 1021.1
20210919140219 68 328 3.5 7.0 0.00 0.00 0.00 66 1021.1
20210919140012 68 17 1.7 7.0 0.00 0.00 0.00 68 1021.1
20210919135727 68 8 1.7 9.6 0.00 0.00 0.00 67 1021.1
20210919135520 68 351 2.6 9.6 0.00 0.00 0.00 67 1021.1
20210919135215 68 360 4.3 9.6 0.00 0.00 0.00 67 1021.1
20210919135011 68 19 4.3 8.7 0.00 0.00 0.00 68 1021.1
20210919134723 67 1 3.5 5.2 0.00 0.00 0.00 68 1021.0
20210919134519 67 50 1.7 5.2 0.00 0.00 0.00 70 1021.0
20210919134210 67 38 2.6 5.2 0.00 0.00 0.00 69 1020.9
20210919134027 67 21 2.6 5.2 0.00 0.00 0.00 68 1020.9
20210919133718 67 13 2.6 8.7 0.00 0.00 0.00 70 1021.0
20210919133515 67 23 1.7 8.7 0.00 0.00 0.00 70 1020.9
20210919133210 67 22 2.6 8.7 0.00 0.00 0.00 69 1020.9
20210919133022 67 20 4.3 8.7 0.00 0.00 0.00 69 1020.8
20210919132718 67 8 2.6 5.2 0.00 0.00 0.00 71 1020.8
20210919132510 67 337 1.7 5.2 0.00 0.00 0.00 71 1020.8
20210919132226 66 346 2.6 5.2 0.00 0.00 0.00 70 1020.7
20210919132039 66 356 3.5 5.2 0.00 0.00 0.00 70 1020.7
20210919131713 66 351 2.6 4.3 0.00 0.00 0.00 70 1020.7
20210919131526 66 6 2.6 4.3 0.00 0.00 0.00 71 1020.7
20210919131221 66 356 2.6 4.3 0.00 0.00 0.00 72 1020.7
20210919131014 66 360 1.7 4.3 0.00 0.00 0.00 73 1020.7
20210919130709 66 14 1.7 4.3 0.00 0.00 0.00 73 1020.6
20210919130522 66 10 1.7 4.3 0.00 0.00 0.00 73 1020.7
20210919130217 66 1 2.6 3.5 0.00 0.00 0.00 74 1020.6
20210919130013 66 360 0.9 2.6 0.00 0.00 0.00 75 1020.6
20210919125725 66 360 1.7 2.6 0.00 0.00 0.00 74 1020.6
20210919125521 65 360 0.9 2.6 0.00 0.00 0.00 75 1020.6
20210919125212 65 360 1.7 3.5 0.00 0.00 0.00 75 1020.6
20210919125009 65 360 1.7 3.5 0.00 0.00 0.00 75 1020.5
20210919124720 65 356 1.7 7.0 0.00 0.00 0.00 75 1020.5
20210919124516 65 346 1.7 7.0 0.00 0.00 0.00 75 1020.5
20210919124212 65 356 2.6 7.0 0.00 0.00 0.00 75 1020.4
20210919124024 65 351 3.5 7.0 0.00 0.00 0.00 75 1020.4
20210919123719 64 351 1.7 4.3 0.00 0.00 0.00 78 1020.4
20210919123512 64 351 2.6 4.3 0.00 0.00 0.00 78 1020.4
20210919123227 64 339 1.7 3.5 0.00 0.00 0.00 79 1020.4
20210919123020 64 356 1.7 3.5 0.00 0.00 0.00 79 1020.4
20210919122715 64 356 1.7 3.5 0.00 0.00 0.00 80 1020.4
20210919122528 64 356 2.6 3.5 0.00 0.00 0.00 80 1020.4
20210919122223 63 2 1.7 3.5 0.00 0.00 0.00 81 1020.3
20210919122015 63 1 1.7 2.6 0.00 0.00 0.00 81 1020.3
20210919121711 63 1 1.7 2.6 0.00 0.00 0.00 82 1020.3
20210919121527 63 1 1.7 2.6 0.00 0.00 0.00 82 1020.3
20210919121218 63 1 1.7 2.6 0.00 0.00 0.00 83 1020.3
20210919121013 63 1 0.9 2.6 0.00 0.00 0.00 84 1020.3
20210919120725 62 1 1.7 2.6 0.00 0.00 0.00 84 1020.3
20210919120521 62 1 0.9 2.6 0.00 0.00 0.00 84 1020.3
20210919120233 62 1 1.7 2.6 0.00 0.00 0.00 85 1020.2
20210919120008 62 1 1.7 2.6 0.00 0.00 0.00 86 1020.2
20210919115720 62 1 0.9 3.5 0.00 0.00 0.00 86 1020.0
20210919115516 61 1 0.9 4.3 0.00 0.00 0.00 87 1020.0
20210919115212 61 1 1.7 4.3 0.00 0.00 0.00 87 1020.1
20210919115045 61 1 1.7 4.3 0.00 0.00 0.00 87 1020.1
20210919114719 61 1 1.7 4.3 0.00 0.00 0.00 88 1020.1
20210919114511 61 1 2.6 4.3 0.00 0.00 0.00 88 1020.0
20210919114227 60 2 1.7 3.5 0.00 0.00 0.00 89 1020.1
20210919114019 60 2 1.7 4.3 0.00 0.00 0.00 89 1020.1
20210919113714 60 2 1.7 4.3 0.00 0.00 0.00 90 1020.1
20210919113527 60 2 2.6 4.3 0.00 0.00 0.00 91 1020.1
20210919113222 59 2 1.7 4.3 0.00 0.00 0.00 92 1019.9
20210919113036 59 2 1.7 3.5 0.00 0.00 0.00 92 1019.9
20210919112710 59 2 1.7 2.6 0.00 0.00 0.00 92 1019.8
20210919112522 59 2 0.9 2.6 0.00 0.00 0.00 92 1019.7
20210919112218 59 2 0.9 1.7 0.00 0.00 0.00 92 1019.7
20210919112031 59 2 0.9 1.7 0.00 0.00 0.00 92 1019.7
20210919111726 59 2 0.9 1.7 0.00 0.00 0.00 92 1019.7
20210919111522 59 2 0.9 1.7 0.00 0.00 0.00 92 1019.6
20210919111214 59 2 0.9 1.7 0.00 0.00 0.00 92 1019.6
20210919111010 59 2 0.9 1.7 0.00 0.00 0.00 92 1019.5
20210919110742 59 2 0.9 1.7 0.00 0.00 0.00 92 1019.5
20210919110517 59 2 0.0 0.9 0.00 0.00 0.00 92 1019.4
20210919110208 59 2 0.0 0.9 0.00 0.00 0.00 92 1019.4
20210919110025 59 2 0.0 0.9 0.00 0.00 0.00 92 1019.5
20210919105716 59 2 0.0 0.9 0.00 0.00 0.00 92 1019.4
20210919105512 59 2 0.0 0.9 0.00 0.00 0.00 92 1019.4
20210919105227 59 2 0.0 0.9 0.00 0.00 0.00 92 1019.4
20210919105020 59 2 0.0 0.9 0.00 0.00 0.00 92 1019.4
20210919104715 59 2 0.0 0.0 0.00 0.00 0.00 92 1019.4
20210919104549 59 2 0.0 0.0 0.00 0.00 0.00 92 1019.4
20210919104224 59 2 0.0 0.0 0.00 0.00 0.00 92 1019.4
20210919104016 59 2 0.0 0.0 0.00 0.00 0.00 92 1019.4
20210919103712 59 2 0.0 0.9 0.00 0.00 0.00 92 1019.3
20210919103524 59 2 0.0 0.9 0.00 0.00 0.00 92 1019.2
20210919103219 60 2 0.0 0.9 0.00 0.00 0.00 92 1019.2
20210919103012 60 2 0.0 1.7 0.00 0.00 0.00 92 1019.2
20210919102727 60 2 0.0 1.7 0.00 0.00 0.00 92 1019.2
20210919102519 60 2 0.0 1.7 0.00 0.00 0.00 92 1019.1
20210919102214 60 2 0.9 1.7 0.00 0.00 0.00 92 1019.1
20210919102011 60 2 0.9 1.7 0.00 0.00 0.00 92 1019.0
20210919101723 60 2 0.9 1.7 0.00 0.00 0.00 92 1019.0
20210919101540 60 2 0.9 1.7 0.00 0.00 0.00 92 1019.0
20210919101210 60 2 0.0 0.9 0.00 0.00 0.00 92 1018.9
20210919101026 60 2 0.0 0.9 0.00 0.00 0.00 92 1018.9
20210919100717 60 2 0.0 0.9 0.00 0.00 0.00 92 1018.9
20210919100514 60 2 0.0 1.7 0.00 0.00 0.00 92 1018.9
20210919100208 60 2 0.0 1.7 0.00 0.00 0.00 92 1018.8
20210919100021 61 2 0.0 1.7 0.00 0.00 0.00 92 1018.8
20210919095716 61 2 0.9 0.9 0.00 0.00 0.00 92 1018.8
20210919095509 61 2 0.0 0.9 0.00 0.00 0.00 92 1018.8
20210919095224 60 2 0.0 0.9 0.00 0.00 0.00 91 1018.8
20210919095017 61 2 0.0 0.9 0.00 0.00 0.00 91 1018.8
20210919094712 61 2 0.0 0.0 0.00 0.00 0.00 91 1018.8
20210919094524 61 2 0.0 0.9 0.00 0.00 0.00 91 1018.8
20210919094220 61 2 0.0 1.7 0.00 0.00 0.00 91 1018.8
20210919094012 61 2 0.0 1.7 0.00 0.00 0.00 91 1018.8
20210919093728 61 2 0.0 1.7 0.00 0.00 0.00 90 1018.8
20210919093520 61 2 0.9 1.7 0.00 0.00 0.00 90 1018.8
20210919093216 61 2 0.0 0.9 0.00 0.00 0.00 90 1018.8
20210919093012 62 2 0.0 0.9 0.00 0.00 0.00 90 1018.8
20210919092724 62 2 0.0 0.9 0.00 0.00 0.00 90 1018.7
20210919092520 62 2 0.0 0.9 0.00 0.00 0.00 90 1018.8
20210919092211 62 2 0.0 0.9 0.00 0.00 0.00 90 1018.8
20210919092048 62 2 0.0 0.9 0.00 0.00 0.00 91 1018.7
20210919091719 62 2 0.9 0.9 0.00 0.00 0.00 90 1018.6
20210919091515 62 2 0.0 0.0 0.00 0.00 0.00 90 1018.6
20210919091210 62 2 0.0 0.0 0.00 0.00 0.00 89 1018.5
20210919091022 62 2 0.0 0.0 0.00 0.00 0.00 89 1018.5
20210919090717 62 2 0.0 0.0 0.00 0.00 0.00 89 1018.5
20210919090509 63 2 0.0 0.0 0.00 0.00 0.00 89 1018.5
20210919090226 63 2 0.0 0.0 0.00 0.00 0.00 89 1018.4
20210919090017 63 2 0.0 0.0 0.00 0.00 0.00 89 1018.4
20210919085713 63 2 0.0 0.0 0.00 0.00 0.00 89 1018.3
20210919085525 63 2 0.0 0.9 0.00 0.00 0.00 89 1018.3
20210919085221 63 2 0.0 0.9 0.00 0.00 0.00 89 1018.3
20210919085013 63 2 0.0 0.9 0.00 0.00 0.00 88 1018.2
20210919084708 63 2 0.0 1.7 0.00 0.00 0.00 88 1018.3
20210919084521 64 2 0.0 1.7 0.00 0.00 0.00 88 1018.2
20210919084217 64 2 0.9 1.7 0.00 0.00 0.00 88 1018.2
20210919084013 64 2 0.9 1.7 0.00 0.00 0.00 88 1018.2
20210919083722 64 2 0.9 1.7 0.00 0.00 0.00 88 1018.2
20210919083519 64 2 0.9 1.7 0.00 0.00 0.00 88 1018.1
20210919083210 64 2 0.9 2.6 0.00 0.00 0.00 88 1018.1
20210919083026 64 2 0.9 2.6 0.00 0.00 0.00 88 1018.1
20210919082738 64 2 1.7 2.6 0.00 0.00 0.00 88 1018.2
20210919082534 64 2 1.7 3.5 0.00 0.00 0.00 88 1018.1
20210919082225 65 2 1.7 3.5 0.00 0.00 0.00 88 1018.1
20210919082021 65 2 1.7 3.5 0.00 0.00 0.00 88 1018.1
20210919081717 65 2 1.7 3.5 0.00 0.00 0.00 88 1018.0
20210919081549 65 2 1.7 5.2 0.00 0.00 0.00 88 1018.0
20210919081241 65 2 0.9 5.2 0.00 0.00 0.00 89 1018.0
20210919081016 65 2 1.7 5.2 0.00 0.00 0.00 89 1018.1
20210919080711 65 346 1.7 4.3 0.00 0.00 0.00 89 1018.0
20210919080524 65 346 0.9 1.7 0.00 0.00 0.00 89 1018.0
20210919080220 65 346 0.9 3.5 0.00 0.00 0.00 89 1018.0
20210919080012 65 346 0.9 3.5 0.00 0.00 0.00 89 1018.1
20210919075728 65 346 1.7 3.5 0.00 0.00 0.00 89 1018.0
20210919075520 65 346 1.7 3.5 0.00 0.00 0.00 88 1018.0
20210919075215 65 2 0.9 2.6 0.00 0.00 0.00 89 1018.0
20210919075028 65 2 0.9 2.6 0.00 0.00 0.00 88 1017.9
20210919074723 65 2 0.9 2.6 0.00 0.00 0.00 88 1017.9
20210919074515 65 2 1.7 2.6 0.00 0.00 0.00 88 1017.9
20210919074211 65 2 1.7 2.6 0.00 0.00 0.00 89 1017.9
20210919074027 65 2 0.9 1.7 0.00 0.00 0.00 89 1017.8
20210919073738 65 2 0.9 2.6 0.00 0.00 0.00 88 1017.8
20210919073513 66 2 0.9 2.6 0.00 0.00 0.00 88 1017.7
20210919073224 66 2 1.7 2.6 0.00 0.00 0.00 88 1017.8
20210919073021 66 2 1.7 2.6 0.00 0.00 0.00 88 1017.7
20210919072713 66 2 1.7 2.6 0.00 0.00 0.00 87 1017.7
20210919072509 66 2 1.7 2.6 0.00 0.00 0.00 87 1017.8
20210919072220 66 2 1.7 2.6 0.00 0.00 0.00 87 1017.8
20210919072017 66 2 1.7 1.7 0.00 0.00 0.00 87 1017.8
20210919071712 67 2 0.9 1.7 0.00 0.00 0.00 87 1017.7
20210919071525 67 2 0.9 1.7 0.00 0.00 0.00 86 1017.9
20210919071241 67 2 0.9 1.7 0.00 0.00 0.00 86 1017.8
20210919071012 67 2 0.9 1.7 0.00 0.00 0.00 85 1017.8
20210919070708 67 2 0.9 3.5 0.00 0.00 0.00 85 1017.8
20210919070520 67 2 0.9 3.5 0.00 0.00 0.00 85 1017.8
20210919070216 68 2 0.9 3.5 0.00 0.00 0.00 85 1017.8
20210919070028 68 2 1.7 4.3 0.00 0.00 0.00 84 1017.8
20210919065724 68 11 1.7 7.8 0.00 0.00 0.00 84 1017.8
20210919065515 68 11 2.6 7.8 0.00 0.00 0.00 84 1017.7
20210919065211 68 40 2.6 8.7 0.00 0.00 0.00 85 1017.8
20210919065024 68 9 2.6 8.7 0.00 0.00 0.00 85 1017.8
20210919064719 68 10 3.5 8.7 0.00 0.00 0.00 85 1017.7
20210919064515 68 11 2.6 7.0 0.00 0.00 0.00 85 1017.7
20210919064227 68 8 3.5 7.0 0.00 0.00 0.00 85 1017.8
20210919064023 68 1 2.6 7.0 0.00 0.00 0.00 85 1017.7
20210919063715 68 360 2.6 7.0 0.00 0.00 0.00 85 1017.8
20210919063511 68 360 2.6 7.0 0.00 0.00 0.00 84 1017.8
20210919063223 69 2 3.5 8.7 0.00 0.00 0.00 85 1017.7
20210919063019 69 6 3.5 8.7 0.00 0.00 0.00 85 1017.7
20210919062714 68 2 4.3 8.7 0.00 0.00 0.00 85 1017.7
20210919062527 68 10 4.3 8.7 0.00 0.00 0.00 85 1017.8
20210919062222 68 20 3.5 7.8 0.00 0.00 0.00 85 1017.8
20210919062014 68 356 4.3 7.8 0.00 0.00 0.00 85 1017.7
20210919061710 69 356 2.6 3.5 0.00 0.00 0.00 85 1017.7
20210919061522 69 356 2.6 3.5 0.00 0.00 0.00 85 1017.7
20210919061217 69 356 2.6 3.5 0.00 0.00 0.00 84 1017.7
20210919061009 69 356 2.6 3.5 0.00 0.00 0.00 85 1017.7
20210919060725 69 356 1.7 2.6 0.00 0.00 0.00 86 1017.7
20210919060518 69 356 1.7 2.6 0.00 0.00 0.00 86 1017.7
20210919060213 69 356 1.7 2.6 0.00 0.00 0.00 85 1017.7
20210919060010 69 356 1.7 2.6 0.00 0.00 0.00 85 1017.7
20210919055721 69 356 0.9 3.5 0.00 0.00 0.00 85 1017.7
20210919055538 69 356 0.9 3.5 0.00 0.00 0.00 84 1017.6
20210919055208 69 356 1.7 4.3 0.00 0.00 0.00 85 1017.6
20210919055025 69 356 1.7 4.3 0.00 0.00 0.00 85 1017.5
20210919054716 70 356 1.7 4.3 0.00 0.00 0.00 84 1017.5
20210919054512 70 356 2.6 5.2 0.00 0.00 0.00 84 1017.5
20210919054208 70 356 2.6 5.2 0.00 0.00 0.00 84 1017.5
20210919054021 70 356 1.7 5.2 0.00 0.00 0.00 84 1017.5
20210919053716 70 360 2.6 4.3 0.00 0.00 0.00 84 1017.5
20210919053509 70 2 1.7 4.3 0.00 0.00 0.00 84 1017.5
20210919053224 70 2 1.7 4.3 0.00 0.00 0.00 83 1017.5
20210919053016 71 2 2.6 4.3 0.00 0.00 0.00 82 1017.6
20210919052712 71 2 1.7 4.3 0.00 0.00 0.00 82 1017.6
20210919052525 71 356 1.7 2.6 0.00 0.00 0.00 82 1017.6
20210919052219 71 356 0.9 2.6 0.00 0.00 0.00 82 1017.6
20210919052011 72 356 1.7 2.6 0.00 0.00 0.00 81 1017.6
20210919051727 72 356 0.9 2.6 0.00 0.00 0.00 81 1017.6
20210919051519 72 356 0.9 3.5 0.00 0.00 0.00 81 1017.6
20210919051235 72 356 1.7 3.5 0.00 0.00 0.00 80 1017.6
20210919051010 72 356 0.9 5.2 0.00 0.00 0.00 80 1017.6
20210919050722 72 356 1.7 5.2 0.00 0.00 0.00 80 1017.5
20210919050518 72 356 2.6 5.2 0.00 0.00 0.00 80 1017.6
20210919050210 72 356 2.6 5.2 0.00 0.00 0.00 80 1017.5
20210919050026 72 3 0.9 4.3 0.00 0.00 0.00 80 1017.6
20210919045717 72 4 2.6 4.3 0.00 0.00 0.00 80 1017.6
20210919045514 72 9 2.6 4.3 0.00 0.00 0.00 81 1017.5
20210919045209 72 4 1.7 7.0 0.00 0.00 0.00 80 1017.5
20210919045021 72 8 2.6 7.0 0.00 0.00 0.00 80 1017.5
20210919044716 72 336 2.6 7.0 0.00 0.00 0.00 80 1017.5
20210919044528 72 8 1.7 7.0 0.00 0.00 0.00 80 1017.5
20210919044223 72 13 2.6 7.0 0.00 0.00 0.00 80 1017.5
20210919044016 72 338 3.5 7.0 0.00 0.00 0.00 80 1017.5